| time (UTC) | temp F | wind direction | speed MPH | gust MPH | rain 1hr in | rain 24hr in | rain mn in | humidity % | barometer mb |
| 20260508225049 | 64 | 0 | 0.0 | 0.0 | 0.00 | 0.00 | 0.00 | 61 | 1013.1 |
| 20260508224551 | 64 | 0 | 0.0 | 0.0 | 0.00 | 0.00 | 0.00 | 62 | 1013.2 |
| 20260508224049 | 64 | 0 | 0.0 | 0.0 | 0.00 | 0.00 | 0.00 | 60 | 1013.2 |
| 20260508223549 | 64 | 0 | 0.0 | 0.0 | 0.00 | 0.00 | 0.00 | 60 | 1013.3 |
| 20260508223055 | 64 | 0 | 0.0 | 0.0 | 0.00 | 0.00 | 0.00 | 59 | 1013.4 |
| 20260508222551 | 65 | 0 | 0.0 | 0.0 | 0.00 | 0.00 | 0.00 | 60 | 1013.3 |
| 20260508222049 | 65 | 0 | 0.0 | 0.0 | 0.00 | 0.00 | 0.00 | 59 | 1013.4 |
| 20260508221552 | 65 | 0 | 0.0 | 0.0 | 0.00 | 0.00 | 0.00 | 59 | 1013.0 |
| 20260508221052 | 65 | 0 | 0.0 | 0.0 | 0.00 | 0.00 | 0.00 | 59 | 1013.2 |
| 20260508220553 | 65 | 0 | 0.0 | 0.0 | 0.00 | 0.00 | 0.00 | 58 | 1013.1 |
| 20260508220100 | 65 | 0 | 0.0 | 0.0 | 0.00 | 0.00 | 0.00 | 57 | 1013.0 |
| 20260508215549 | 65 | 0 | 0.0 | 0.0 | 0.00 | 0.00 | 0.00 | 59 | 1013.1 |
| 20260508215049 | 65 | 0 | 0.0 | 0.0 | 0.00 | 0.00 | 0.00 | 58 | 1013.2 |
| 20260508214601 | 65 | 0 | 0.0 | 0.0 | 0.00 | 0.00 | 0.00 | 56 | 1013.2 |
| 20260508214049 | 65 | 0 | 0.0 | 0.0 | 0.00 | 0.00 | 0.00 | 56 | 1013.4 |
| 20260508213549 | 65 | 0 | 0.0 | 0.0 | 0.00 | 0.00 | 0.00 | 57 | 1013.5 |
| 20260508213053 | 65 | 0 | 0.0 | 0.0 | 0.00 | 0.00 | 0.00 | 58 | 1013.2 |
| 20260508212550 | 65 | 0 | 0.0 | 0.0 | 0.00 | 0.00 | 0.00 | 56 | 1013.0 |
| 20260508212048 | 65 | 0 | 0.0 | 0.0 | 0.00 | 0.00 | 0.00 | 57 | 1013.1 |
| 20260508211558 | 65 | 0 | 0.0 | 0.0 | 0.00 | 0.00 | 0.00 | 57 | 1013.0 |
| 20260508211049 | 66 | 0 | 0.0 | 0.0 | 0.00 | 0.00 | 0.00 | 58 | 1013.0 |
| 20260508210549 | 66 | 0 | 0.0 | 0.0 | 0.00 | 0.00 | 0.00 | 57 | 1013.1 |
| 20260508210059 | 66 | 0 | 0.0 | 0.0 | 0.00 | 0.00 | 0.00 | 58 | 1013.1 |
| 20260508205549 | 66 | 0 | 0.0 | 0.0 | 0.00 | 0.00 | 0.00 | 57 | 1013.2 |
| 20260508205049 | 66 | 0 | 0.0 | 0.0 | 0.00 | 0.00 | 0.00 | 56 | 1013.2 |
| 20260508204550 | 66 | 0 | 0.0 | 0.0 | 0.00 | 0.00 | 0.00 | 55 | 1013.3 |
| 20260508204049 | 66 | 0 | 0.0 | 4.0 | 0.00 | 0.00 | 0.00 | 55 | 1013.3 |
| 20260508203551 | 66 | 0 | 0.0 | 4.0 | 0.00 | 0.00 | 0.00 | 54 | 1013.4 |
| 20260508203101 | 66 | 0 | 0.0 | 0.0 | 0.00 | 0.00 | 0.00 | 52 | 1013.4 |
| 20260508202549 | 66 | 0 | 0.0 | 0.0 | 0.00 | 0.00 | 0.00 | 55 | 1013.5 |
| 20260508202049 | 66 | 0 | 0.0 | 0.0 | 0.00 | 0.00 | 0.00 | 56 | 1013.4 |
| 20260508201554 | 66 | 0 | 0.0 | 0.0 | 0.00 | 0.00 | 0.00 | 58 | 1013.5 |
| 20260508201049 | 66 | 0 | 0.0 | 0.0 | 0.00 | 0.00 | 0.00 | 57 | 1013.5 |
| 20260508200549 | 67 | 0 | 0.0 | 0.0 | 0.00 | 0.00 | 0.00 | 55 | 1013.5 |
| 20260508200100 | 67 | 0 | 0.0 | 0.0 | 0.00 | 0.00 | 0.00 | 54 | 1013.7 |
| 20260508195548 | 67 | 0 | 0.0 | 0.0 | 0.00 | 0.00 | 0.00 | 53 | 1013.9 |
| 20260508195049 | 67 | 0 | 0.0 | 0.0 | 0.00 | 0.00 | 0.00 | 57 | 1013.8 |
| 20260508194609 | 66 | 0 | 0.0 | 0.0 | 0.00 | 0.00 | 0.00 | 53 | 1013.9 |
| 20260508194049 | 66 | 0 | 0.0 | 0.0 | 0.00 | 0.00 | 0.00 | 54 | 1014.0 |
| 20260508193549 | 66 | 0 | 0.0 | 0.0 | 0.00 | 0.00 | 0.00 | 53 | 1014.1 |
| 20260508193110 | 66 | 0 | 0.0 | 0.0 | 0.00 | 0.00 | 0.00 | 55 | 1014.2 |
| 20260508192549 | 66 | 0 | 0.0 | 0.0 | 0.00 | 0.00 | 0.00 | 54 | 1014.4 |
| 20260508192050 | 66 | 0 | 0.0 | 0.0 | 0.00 | 0.00 | 0.00 | 55 | 1014.4 |
| 20260508191601 | 66 | 0 | 0.0 | 0.0 | 0.00 | 0.00 | 0.00 | 53 | 1014.5 |
| 20260508191049 | 66 | 0 | 0.0 | 0.0 | 0.00 | 0.00 | 0.00 | 52 | 1014.4 |
| 20260508190549 | 66 | 0 | 0.0 | 0.0 | 0.00 | 0.00 | 0.00 | 55 | 1014.5 |
| 20260508190053 | 66 | 0 | 0.0 | 0.0 | 0.00 | 0.00 | 0.00 | 53 | 1014.7 |
| 20260508185550 | 66 | 0 | 0.0 | 0.0 | 0.00 | 0.00 | 0.00 | 55 | 1014.8 |
| 20260508185050 | 67 | 0 | 0.0 | 3.0 | 0.00 | 0.00 | 0.00 | 54 | 1014.7 |
| 20260508184607 | 67 | 0 | 0.0 | 3.0 | 0.00 | 0.00 | 0.00 | 55 | 1014.7 |
| 20260508184049 | 67 | 0 | 0.0 | 3.0 | 0.00 | 0.00 | 0.00 | 55 | 1015.0 |
| 20260508183550 | 67 | 0 | 0.0 | 3.0 | 0.00 | 0.00 | 0.00 | 52 | 1015.1 |
| 20260508183054 | 67 | 0 | 0.0 | 0.0 | 0.00 | 0.00 | 0.00 | 51 | 1014.9 |
| 20260508182549 | 68 | 0 | 0.0 | 0.0 | 0.00 | 0.00 | 0.00 | 49 | 1015.0 |
| 20260508182049 | 68 | 0 | 0.0 | 0.0 | 0.00 | 0.00 | 0.00 | 49 | 1015.1 |
| 20260508181601 | 69 | 0 | 0.0 | 0.0 | 0.00 | 0.00 | 0.00 | 46 | 1015.2 |
| 20260508181049 | 69 | 0 | 0.0 | 0.0 | 0.00 | 0.00 | 0.00 | 44 | 1015.1 |
| 20260508180549 | 70 | 0 | 0.0 | 0.0 | 0.00 | 0.00 | 0.00 | 44 | 1015.2 |
| 20260508180101 | 70 | 0 | 0.0 | 0.0 | 0.00 | 0.00 | 0.00 | 44 | 1015.1 |
| 20260508175549 | 70 | 0 | 0.0 | 0.0 | 0.00 | 0.00 | 0.00 | 42 | 1015.2 |
| 20260508175051 | 70 | 0 | 0.0 | 0.0 | 0.00 | 0.00 | 0.00 | 43 | 1015.3 |
| 20260508174603 | 70 | 0 | 0.0 | 0.0 | 0.00 | 0.00 | 0.00 | 43 | 1015.4 |
| 20260508174050 | 69 | 0 | 0.0 | 3.0 | 0.00 | 0.00 | 0.00 | 45 | 1015.6 |
| 20260508173551 | 69 | 0 | 0.0 | 3.0 | 0.00 | 0.00 | 0.00 | 42 | 1015.7 |
| 20260508173058 | 69 | 0 | 0.0 | 3.0 | 0.00 | 0.00 | 0.00 | 38 | 1015.6 |
| 20260508172550 | 70 | 0 | 0.0 | 0.0 | 0.00 | 0.00 | 0.00 | 41 | 1015.6 |
| 20260508172050 | 69 | 0 | 0.0 | 0.0 | 0.00 | 0.00 | 0.00 | 45 | 1015.7 |
| 20260508171554 | 69 | 0 | 0.0 | 0.0 | 0.00 | 0.00 | 0.00 | 43 | 1015.8 |
| 20260508171050 | 69 | 0 | 0.0 | 0.0 | 0.00 | 0.00 | 0.00 | 47 | 1015.9 |
| 20260508170628 | 69 | 0 | 0.0 | 0.0 | 0.00 | 0.00 | 0.00 | 48 | 1016.0 |
| 20260508170050 | 68 | 0 | 0.0 | 0.0 | 0.00 | 0.00 | 0.00 | 42 | 1016.0 |
| 20260508165553 | 68 | 0 | 0.0 | 0.0 | 0.00 | 0.00 | 0.00 | 43 | 1016.0 |
| 20260508165049 | 68 | 0 | 0.0 | 0.0 | 0.00 | 0.00 | 0.00 | 46 | 1016.1 |
| 20260508164553 | 68 | 0 | 0.0 | 0.0 | 0.00 | 0.00 | 0.00 | 46 | 1016.3 |
| 20260508164049 | 68 | 0 | 0.0 | 0.0 | 0.00 | 0.00 | 0.00 | 45 | 1016.5 |
| 20260508163553 | 67 | 0 | 0.0 | 0.0 | 0.00 | 0.00 | 0.00 | 44 | 1016.4 |
| 20260508163053 | 67 | 0 | 0.0 | 0.0 | 0.00 | 0.00 | 0.00 | 46 | 1016.5 |
| 20260508162549 | 67 | 0 | 0.0 | 3.0 | 0.00 | 0.00 | 0.00 | 49 | 1016.6 |
| 20260508162049 | 66 | 0 | 0.0 | 3.0 | 0.00 | 0.00 | 0.00 | 45 | 1016.7 |
| 20260508161557 | 66 | 0 | 0.0 | 0.0 | 0.00 | 0.00 | 0.00 | 48 | 1016.7 |
| 20260508161054 | 65 | 0 | 0.0 | 0.0 | 0.00 | 0.00 | 0.00 | 48 | 1016.8 |
| 20260508160549 | 65 | 0 | 0.0 | 0.0 | 0.00 | 0.00 | 0.00 | 50 | 1016.8 |
| 20260508160121 | 64 | 0 | 0.0 | 0.0 | 0.00 | 0.00 | 0.00 | 51 | 1017.1 |
| 20260508155550 | 64 | 0 | 0.0 | 2.0 | 0.00 | 0.00 | 0.00 | 56 | 1017.1 |
| 20260508155050 | 63 | 0 | 0.0 | 2.0 | 0.00 | 0.00 | 0.00 | 51 | 1017.1 |
| 20260508154557 | 62 | 0 | 0.0 | 0.0 | 0.00 | 0.00 | 0.00 | 50 | 1017.2 |
| 20260508154048 | 62 | 0 | 0.0 | 0.0 | 0.00 | 0.00 | 0.00 | 56 | 1017.3 |
| 20260508153548 | 61 | 0 | 0.0 | 0.0 | 0.00 | 0.00 | 0.00 | 56 | 1017.3 |
| 20260508153055 | 60 | 0 | 0.0 | 0.0 | 0.00 | 0.00 | 0.00 | 57 | 1017.4 |
| 20260508152551 | 60 | 0 | 0.0 | 0.0 | 0.00 | 0.00 | 0.00 | 65 | 1017.4 |
| 20260508152052 | 58 | 0 | 0.0 | 0.0 | 0.00 | 0.00 | 0.00 | 66 | 1017.4 |
| 20260508151553 | 57 | 0 | 0.0 | 0.0 | 0.00 | 0.00 | 0.00 | 69 | 1017.4 |
| 20260508151050 | 55 | 0 | 0.0 | 0.0 | 0.00 | 0.00 | 0.00 | 77 | 1017.4 |
| 20260508150547 | 54 | 0 | 0.0 | 0.0 | 0.00 | 0.00 | 0.00 | 79 | 1017.3 |
| 20260508150052 | 53 | 0 | 0.0 | 0.0 | 0.00 | 0.00 | 0.00 | 83 | 1017.3 |
| 20260508145548 | 52 | 0 | 0.0 | 0.0 | 0.00 | 0.00 | 0.00 | 87 | 1017.4 |
| 20260508145049 | 51 | 0 | 0.0 | 0.0 | 0.00 | 0.00 | 0.00 | 89 | 1017.4 |
| 20260508144549 | 50 | 0 | 0.0 | 0.0 | 0.00 | 0.00 | 0.00 | 90 | 1017.4 |
| 20260508144052 | 49 | 0 | 0.0 | 0.0 | 0.00 | 0.00 | 0.00 | 89 | 1017.5 |
| 20260508143550 | 49 | 0 | 0.0 | 0.0 | 0.00 | 0.00 | 0.00 | 91 | 1017.6 |
| 20260508143103 | 48 | 0 | 0.0 | 0.0 | 0.00 | 0.00 | 0.00 | 91 | 1017.7 |
| 20260508142548 | 48 | 0 | 0.0 | 0.0 | 0.00 | 0.00 | 0.00 | 92 | 1017.7 |
| 20260508142050 | 48 | 0 | 0.0 | 0.0 | 0.00 | 0.00 | 0.00 | 92 | 1017.7 |
| 20260508141604 | 47 | 0 | 0.0 | 0.0 | 0.00 | 0.00 | 0.00 | 92 | 1017.7 |
| 20260508141050 | 47 | 0 | 0.0 | 0.0 | 0.00 | 0.00 | 0.00 | 92 | 1017.9 |
| 20260508140552 | 47 | 0 | 0.0 | 0.0 | 0.00 | 0.00 | 0.00 | 92 | 1017.9 |
| 20260508140052 | 47 | 0 | 0.0 | 0.0 | 0.00 | 0.00 | 0.00 | 93 | 1017.9 |
| 20260508135552 | 46 | 0 | 0.0 | 0.0 | 0.00 | 0.00 | 0.00 | 93 | 1017.9 |
| 20260508135049 | 46 | 0 | 0.0 | 0.0 | 0.00 | 0.00 | 0.00 | 93 | 1017.9 |
| 20260508134554 | 46 | 0 | 0.0 | 0.0 | 0.00 | 0.00 | 0.00 | 93 | 1017.9 |
| 20260508134049 | 46 | 0 | 0.0 | 0.0 | 0.00 | 0.00 | 0.00 | 93 | 1017.9 |
| 20260508133549 | 46 | 0 | 0.0 | 0.0 | 0.00 | 0.00 | 0.00 | 93 | 1017.9 |
| 20260508133058 | 45 | 0 | 0.0 | 0.0 | 0.00 | 0.00 | 0.00 | 93 | 1018.0 |
| 20260508132550 | 45 | 0 | 0.0 | 0.0 | 0.00 | 0.00 | 0.00 | 93 | 1018.1 |
| 20260508132048 | 45 | 0 | 0.0 | 0.0 | 0.00 | 0.00 | 0.00 | 93 | 1018.2 |
| 20260508131555 | 45 | 0 | 0.0 | 0.0 | 0.00 | 0.00 | 0.00 | 92 | 1018.3 |
| 20260508131050 | 45 | 0 | 0.0 | 0.0 | 0.00 | 0.00 | 0.00 | 92 | 1018.2 |
| 20260508130550 | 45 | 0 | 0.0 | 0.0 | 0.00 | 0.00 | 0.00 | 92 | 1018.2 |
| 20260508130057 | 45 | 0 | 0.0 | 0.0 | 0.00 | 0.00 | 0.00 | 92 | 1018.1 |
| 20260508125548 | 45 | 0 | 0.0 | 0.0 | 0.00 | 0.00 | 0.00 | 92 | 1018.1 |
| 20260508125050 | 45 | 0 | 0.0 | 0.0 | 0.00 | 0.00 | 0.00 | 92 | 1018.0 |
| 20260508124555 | 45 | 0 | 0.0 | 0.0 | 0.00 | 0.00 | 0.00 | 92 | 1017.9 |
| 20260508124048 | 45 | 0 | 0.0 | 0.0 | 0.00 | 0.00 | 0.00 | 92 | 1017.9 |
| 20260508123548 | 45 | 0 | 0.0 | 0.0 | 0.00 | 0.00 | 0.00 | 92 | 1017.8 |
| 20260508123055 | 44 | 0 | 0.0 | 0.0 | 0.00 | 0.00 | 0.00 | 92 | 1017.8 |
| 20260508122548 | 44 | 0 | 0.0 | 0.0 | 0.00 | 0.00 | 0.00 | 92 | 1017.8 |
| 20260508122048 | 44 | 0 | 0.0 | 0.0 | 0.00 | 0.00 | 0.00 | 92 | 1017.8 |
| 20260508121606 | 44 | 0 | 0.0 | 0.0 | 0.00 | 0.00 | 0.00 | 92 | 1017.7 |
| 20260508121047 | 44 | 0 | 0.0 | 0.0 | 0.00 | 0.00 | 0.00 | 92 | 1017.7 |
| 20260508120548 | 44 | 0 | 0.0 | 0.0 | 0.00 | 0.00 | 0.00 | 92 | 1017.5 |
| 20260508120053 | 44 | 0 | 0.0 | 0.0 | 0.00 | 0.00 | 0.00 | 92 | 1017.5 |
| 20260508115548 | 44 | 0 | 0.0 | 0.0 | 0.00 | 0.13 | 0.00 | 92 | 1017.4 |
| 20260508115048 | 44 | 0 | 0.0 | 0.0 | 0.00 | 0.13 | 0.00 | 92 | 1017.4 |
| 20260508114558 | 44 | 0 | 0.0 | 0.0 | 0.00 | 0.13 | 0.00 | 92 | 1017.2 |
| 20260508114049 | 44 | 0 | 0.0 | 0.0 | 0.00 | 0.13 | 0.00 | 92 | 1017.1 |
| 20260508113550 | 44 | 0 | 0.0 | 0.0 | 0.00 | 0.13 | 0.00 | 92 | 1017.1 |
| 20260508113104 | 44 | 0 | 0.0 | 0.0 | 0.00 | 0.13 | 0.00 | 92 | 1017.0 |
| 20260508112548 | 44 | 0 | 0.0 | 0.0 | 0.00 | 0.13 | 0.00 | 91 | 1017.0 |
| 20260508112053 | 44 | 0 | 0.0 | 0.0 | 0.00 | 0.13 | 0.00 | 91 | 1016.8 |
| 20260508111553 | 44 | 0 | 0.0 | 0.0 | 0.00 | 0.13 | 0.00 | 91 | 1016.7 |
| 20260508111052 | 44 | 0 | 0.0 | 0.0 | 0.00 | 0.13 | 0.00 | 91 | 1016.6 |
| 20260508110549 | 44 | 0 | 0.0 | 0.0 | 0.00 | 0.13 | 0.00 | 91 | 1016.5 |
| 20260508110057 | 44 | 0 | 0.0 | 0.0 | 0.00 | 0.13 | 0.00 | 91 | 1016.4 |
| 20260508105548 | 44 | 0 | 0.0 | 0.0 | 0.00 | 0.23 | 0.00 | 91 | 1016.3 |
| 20260508105051 | 44 | 0 | 0.0 | 0.0 | 0.00 | 0.23 | 0.00 | 91 | 1016.3 |
| 20260508104552 | 44 | 0 | 0.0 | 0.0 | 0.00 | 0.23 | 0.00 | 91 | 1016.2 |
| 20260508104048 | 45 | 0 | 0.0 | 0.0 | 0.00 | 0.23 | 0.00 | 91 | 1016.2 |
| 20260508103548 | 45 | 0 | 0.0 | 0.0 | 0.00 | 0.23 | 0.00 | 92 | 1016.1 |
| 20260508103055 | 45 | 0 | 0.0 | 0.0 | 0.00 | 0.23 | 0.00 | 92 | 1016.0 |
| 20260508102547 | 45 | 0 | 0.0 | 0.0 | 0.00 | 0.23 | 0.00 | 92 | 1016.0 |
| 20260508102048 | 45 | 0 | 0.0 | 0.0 | 0.00 | 0.23 | 0.00 | 92 | 1015.8 |
| 20260508101552 | 45 | 0 | 0.0 | 0.0 | 0.00 | 0.23 | 0.00 | 92 | 1015.8 |
| 20260508101050 | 45 | 0 | 0.0 | 0.0 | 0.00 | 0.23 | 0.00 | 92 | 1015.7 |
| 20260508100546 | 45 | 0 | 0.0 | 0.0 | 0.00 | 0.23 | 0.00 | 92 | 1015.6 |
| 20260508100050 | 45 | 0 | 0.0 | 0.0 | 0.00 | 0.23 | 0.00 | 92 | 1015.6 |
| 20260508095549 | 45 | 0 | 0.0 | 0.0 | 0.00 | 0.23 | 0.00 | 92 | 1015.6 |
| 20260508095053 | 46 | 0 | 0.0 | 0.0 | 0.00 | 0.23 | 0.00 | 92 | 1015.5 |
| 20260508094605 | 46 | 0 | 0.0 | 0.0 | 0.00 | 0.23 | 0.00 | 92 | 1015.5 |
| 20260508094048 | 46 | 0 | 0.0 | 0.0 | 0.00 | 0.23 | 0.00 | 92 | 1015.5 |
| 20260508093548 | 46 | 0 | 0.0 | 0.0 | 0.00 | 0.23 | 0.00 | 92 | 1015.4 |
| 20260508093053 | 46 | 0 | 0.0 | 0.0 | 0.00 | 0.23 | 0.00 | 92 | 1015.5 |
| 20260508092548 | 46 | 0 | 0.0 | 0.0 | 0.00 | 0.23 | 0.00 | 92 | 1015.5 |
| 20260508092048 | 46 | 0 | 0.0 | 0.0 | 0.00 | 0.23 | 0.00 | 92 | 1015.5 |
| 20260508091555 | 46 | 0 | 0.0 | 0.0 | 0.00 | 0.23 | 0.00 | 92 | 1015.6 |
| 20260508091048 | 46 | 0 | 0.0 | 0.0 | 0.00 | 0.23 | 0.00 | 92 | 1015.4 |
| 20260508090549 | 46 | 0 | 0.0 | 0.0 | 0.00 | 0.23 | 0.00 | 92 | 1015.3 |
| 20260508090053 | 46 | 0 | 0.0 | 0.0 | 0.00 | 0.23 | 0.00 | 92 | 1015.4 |
| 20260508085547 | 46 | 0 | 0.0 | 0.0 | 0.00 | 0.23 | 0.00 | 92 | 1015.5 |
| 20260508085051 | 46 | 0 | 0.0 | 0.0 | 0.00 | 0.23 | 0.00 | 92 | 1015.3 |
| 20260508084551 | 46 | 0 | 0.0 | 0.0 | 0.00 | 0.23 | 0.00 | 92 | 1015.3 |
| 20260508084047 | 46 | 0 | 0.0 | 0.0 | 0.00 | 0.23 | 0.00 | 92 | 1015.2 |
| 20260508083549 | 45 | 0 | 0.0 | 0.0 | 0.00 | 0.23 | 0.00 | 92 | 1015.1 |
| 20260508083131 | 45 | 0 | 0.0 | 0.0 | 0.00 | 0.23 | 0.00 | 92 | 1015.1 |
| 20260508082547 | 45 | 0 | 0.0 | 0.0 | 0.00 | 0.23 | 0.00 | 92 | 1014.9 |
| 20260508082049 | 45 | 0 | 0.0 | 0.0 | 0.00 | 0.23 | 0.00 | 91 | 1015.0 |
| 20260508081555 | 45 | 0 | 0.0 | 0.0 | 0.00 | 0.23 | 0.00 | 91 | 1015.1 |
| 20260508081048 | 45 | 0 | 0.0 | 0.0 | 0.00 | 0.23 | 0.00 | 91 | 1015.1 |
| 20260508080548 | 45 | 0 | 0.0 | 0.0 | 0.00 | 0.23 | 0.00 | 91 | 1014.7 |
| 20260508080056 | 45 | 0 | 0.0 | 0.0 | 0.00 | 0.23 | 0.00 | 91 | 1014.8 |
| 20260508075549 | 46 | 0 | 0.0 | 0.0 | 0.00 | 0.23 | 0.00 | 91 | 1014.7 |
| 20260508075050 | 46 | 0 | 0.0 | 0.0 | 0.00 | 0.23 | 0.00 | 91 | 1014.8 |
| 20260508074552 | 46 | 0 | 0.0 | 0.0 | 0.00 | 0.23 | 0.00 | 91 | 1014.8 |
| 20260508074048 | 46 | 0 | 0.0 | 0.0 | 0.00 | 0.23 | 0.00 | 91 | 1014.8 |
| 20260508073548 | 46 | 0 | 0.0 | 0.0 | 0.00 | 0.23 | 0.00 | 91 | 1014.7 |
| 20260508073058 | 46 | 0 | 0.0 | 0.0 | 0.00 | 0.23 | 0.00 | 91 | 1014.7 |
| 20260508072547 | 46 | 0 | 0.0 | 0.0 | 0.00 | 0.23 | 0.00 | 91 | 1014.6 |
| 20260508072047 | 46 | 0 | 0.0 | 0.0 | 0.00 | 0.23 | 0.00 | 91 | 1014.5 |
| 20260508071555 | 46 | 0 | 0.0 | 0.0 | 0.00 | 0.23 | 0.00 | 91 | 1014.6 |
| 20260508071047 | 46 | 0 | 0.0 | 0.0 | 0.00 | 0.23 | 0.00 | 91 | 1014.5 |
| 20260508070547 | 46 | 0 | 0.0 | 0.0 | 0.00 | 0.23 | 0.00 | 91 | 1014.6 |
| 20260508070050 | 46 | 0 | 0.0 | 0.0 | 0.00 | 0.23 | 0.00 | 91 | 1014.6 |
| 20260508065547 | 46 | 0 | 0.0 | 0.0 | 0.00 | 0.23 | 0.00 | 90 | 1014.6 |
| 20260508065052 | 46 | 0 | 0.0 | 0.0 | 0.00 | 0.23 | 0.00 | 90 | 1014.8 |
| 20260508064608 | 46 | 0 | 0.0 | 0.0 | 0.00 | 0.23 | 0.00 | 90 | 1014.8 |
| 20260508064050 | 46 | 0 | 0.0 | 0.0 | 0.00 | 0.23 | 0.00 | 91 | 1014.6 |
| 20260508063547 | 46 | 0 | 0.0 | 0.0 | 0.00 | 0.23 | 0.00 | 91 | 1014.7 |
| 20260508063050 | 46 | 0 | 0.0 | 0.0 | 0.00 | 0.23 | 0.00 | 91 | 1014.6 |
| 20260508062548 | 46 | 0 | 0.0 | 0.0 | 0.00 | 0.23 | 0.00 | 90 | 1014.7 |
| 20260508062047 | 46 | 0 | 0.0 | 0.0 | 0.00 | 0.23 | 0.00 | 90 | 1014.7 |
| 20260508061552 | 46 | 0 | 0.0 | 0.0 | 0.00 | 0.23 | 0.00 | 90 | 1014.7 |
| 20260508061048 | 47 | 0 | 0.0 | 0.0 | 0.00 | 0.23 | 0.00 | 90 | 1014.7 |
| 20260508060551 | 47 | 0 | 0.0 | 0.0 | 0.00 | 0.23 | 0.00 | 90 | 1014.7 |
| 20260508060059 | 47 | 0 | 0.0 | 0.0 | 0.00 | 0.23 | 0.00 | 90 | 1014.6 |
| 20260508055549 | 47 | 0 | 0.0 | 0.0 | 0.00 | 0.32 | 0.00 | 90 | 1014.6 |
| 20260508055048 | 47 | 0 | 0.0 | 0.0 | 0.00 | 0.32 | 0.00 | 90 | 1014.7 |
| 20260508054556 | 47 | 0 | 0.0 | 0.0 | 0.00 | 0.32 | 0.00 | 90 | 1014.6 |
| 20260508054052 | 47 | 0 | 0.0 | 0.0 | 0.00 | 0.32 | 0.00 | 90 | 1014.6 |
| 20260508053548 | 47 | 0 | 0.0 | 0.0 | 0.00 | 0.32 | 0.00 | 90 | 1014.7 |
| 20260508053101 | 47 | 0 | 0.0 | 0.0 | 0.00 | 0.32 | 0.00 | 90 | 1014.7 |
| 20260508052548 | 47 | 0 | 0.0 | 0.0 | 0.00 | 0.32 | 0.00 | 90 | 1014.7 |
| 20260508052050 | 47 | 0 | 0.0 | 0.0 | 0.00 | 0.32 | 0.00 | 90 | 1014.9 |
| 20260508051553 | 47 | 0 | 0.0 | 0.0 | 0.00 | 0.32 | 0.00 | 90 | 1014.9 |
| 20260508051048 | 47 | 0 | 0.0 | 0.0 | 0.00 | 0.32 | 0.00 | 90 | 1014.7 |
| 20260508050548 | 48 | 0 | 0.0 | 0.0 | 0.00 | 0.32 | 0.00 | 90 | 1014.8 |
| 20260508050100 | 48 | 0 | 0.0 | 0.0 | 0.00 | 0.32 | 0.00 | 90 | 1014.9 |
| 20260508045551 | 48 | 0 | 0.0 | 0.0 | 0.00 | 0.43 | 0.00 | 90 | 1014.9 |
| 20260508045049 | 48 | 0 | 0.0 | 0.0 | 0.00 | 0.43 | 0.00 | 90 | 1014.8 |
| 20260508044551 | 48 | 0 | 0.0 | 0.0 | 0.00 | 0.43 | 0.00 | 90 | 1014.7 |
| 20260508044049 | 48 | 0 | 0.0 | 0.0 | 0.00 | 0.43 | 0.00 | 90 | 1014.7 |
| 20260508043549 | 48 | 0 | 0.0 | 0.0 | 0.00 | 0.43 | 0.00 | 90 | 1014.6 |
| 20260508043055 | 48 | 0 | 0.0 | 0.0 | 0.00 | 0.43 | 0.00 | 90 | 1014.7 |
| 20260508042548 | 48 | 0 | 0.0 | 0.0 | 0.00 | 0.43 | 0.00 | 90 | 1014.5 |
| 20260508042051 | 48 | 0 | 0.0 | 0.0 | 0.00 | 0.43 | 0.00 | 90 | 1014.6 |
| 20260508041552 | 48 | 0 | 0.0 | 0.0 | 0.00 | 0.43 | 0.00 | 90 | 1014.5 |
| 20260508041050 | 48 | 0 | 0.0 | 0.0 | 0.00 | 0.43 | 0.00 | 89 | 1014.4 |
| 20260508040548 | 48 | 0 | 0.0 | 0.0 | 0.00 | 0.43 | 0.00 | 89 | 1014.5 |
| 20260508040055 | 48 | 0 | 0.0 | 0.0 | 0.00 | 0.43 | 0.00 | 89 | 1014.5 |
| 20260508035551 | 48 | 0 | 0.0 | 0.0 | 0.00 | 0.44 | 0.43 | 89 | 1014.4 |
| 20260508035047 | 48 | 0 | 0.0 | 0.0 | 0.00 | 0.44 | 0.43 | 88 | 1014.5 |
| 20260508034555 | 48 | 0 | 0.0 | 0.0 | 0.00 | 0.44 | 0.43 | 88 | 1014.7 |
| 20260508034048 | 48 | 0 | 0.0 | 0.0 | 0.00 | 0.44 | 0.43 | 88 | 1014.7 |
| 20260508033546 | 48 | 0 | 0.0 | 0.0 | 0.00 | 0.44 | 0.43 | 88 | 1014.7 |
| 20260508033101 | 48 | 0 | 0.0 | 0.0 | 0.00 | 0.44 | 0.43 | 87 | 1014.8 |
| 20260508032550 | 48 | 0 | 0.0 | 0.0 | 0.00 | 0.44 | 0.43 | 87 | 1014.9 |
| 20260508032050 | 48 | 0 | 0.0 | 0.0 | 0.00 | 0.44 | 0.43 | 87 | 1014.9 |
| 20260508031553 | 48 | 0 | 0.0 | 0.0 | 0.00 | 0.44 | 0.43 | 87 | 1015.1 |
| 20260508031049 | 49 | 0 | 0.0 | 0.0 | 0.00 | 0.44 | 0.43 | 87 | 1015.0 |
| 20260508030549 | 49 | 0 | 0.0 | 0.0 | 0.00 | 0.44 | 0.43 | 87 | 1015.1 |
| 20260508030104 | 49 | 0 | 0.0 | 0.0 | 0.00 | 0.44 | 0.43 | 87 | 1014.9 |
| 20260508025549 | 49 | 0 | 0.0 | 0.0 | 0.00 | 0.47 | 0.43 | 86 | 1015.1 |
| 20260508025049 | 49 | 0 | 0.0 | 0.0 | 0.00 | 0.47 | 0.43 | 86 | 1015.1 |
| 20260508024558 | 49 | 0 | 0.0 | 0.0 | 0.00 | 0.47 | 0.43 | 86 | 1014.9 |
| 20260508024049 | 49 | 0 | 0.0 | 0.0 | 0.00 | 0.47 | 0.43 | 86 | 1014.8 |
| 20260508023549 | 49 | 0 | 0.0 | 0.0 | 0.00 | 0.47 | 0.43 | 85 | 1014.7 |
| 20260508023054 | 50 | 0 | 0.0 | 0.0 | 0.00 | 0.47 | 0.43 | 85 | 1014.6 |
| 20260508022549 | 50 | 0 | 0.0 | 0.0 | 0.00 | 0.47 | 0.43 | 85 | 1014.5 |
| 20260508022050 | 50 | 0 | 0.0 | 0.0 | 0.00 | 0.47 | 0.43 | 85 | 1014.4 |
| 20260508021551 | 50 | 0 | 0.0 | 0.0 | 0.00 | 0.47 | 0.43 | 84 | 1014.3 |
| 20260508021048 | 50 | 0 | 0.0 | 0.0 | 0.00 | 0.47 | 0.43 | 84 | 1014.2 |
| 20260508020550 | 50 | 0 | 0.0 | 0.0 | 0.00 | 0.47 | 0.43 | 84 | 1014.1 |
| 20260508020050 | 51 | 0 | 0.0 | 0.0 | 0.00 | 0.47 | 0.43 | 84 | 1014.2 |
| 20260508015549 | 51 | 0 | 0.0 | 0.0 | 0.00 | 0.50 | 0.43 | 84 | 1014.3 |
| 20260508015049 | 51 | 0 | 0.0 | 0.0 | 0.00 | 0.50 | 0.43 | 84 | 1014.2 |
| 20260508014552 | 51 | 0 | 0.0 | 0.0 | 0.00 | 0.50 | 0.43 | 84 | 1014.2 |
| 20260508014049 | 51 | 0 | 0.0 | 0.0 | 0.00 | 0.50 | 0.43 | 84 | 1014.1 |
| 20260508013546 | 51 | 0 | 0.0 | 0.0 | 0.00 | 0.50 | 0.43 | 84 | 1013.9 |
| 20260508013053 | 52 | 0 | 0.0 | 0.0 | 0.00 | 0.50 | 0.43 | 84 | 1013.7 |
| 20260508012547 | 52 | 0 | 0.0 | 0.0 | 0.00 | 0.50 | 0.43 | 83 | 1013.7 |
| 20260508012049 | 52 | 0 | 0.0 | 0.0 | 0.00 | 0.50 | 0.43 | 83 | 1013.7 |
| 20260508011603 | 52 | 0 | 0.0 | 0.0 | 0.00 | 0.50 | 0.43 | 83 | 1013.5 |
| 20260508011050 | 52 | 0 | 0.0 | 0.0 | 0.00 | 0.50 | 0.43 | 83 | 1013.4 |
| 20260508010549 | 52 | 0 | 0.0 | 0.0 | 0.00 | 0.50 | 0.43 | 82 | 1013.4 |
| 20260508010104 | 52 | 0 | 0.0 | 0.0 | 0.00 | 0.50 | 0.43 | 82 | 1013.4 |
| 20260508005549 | 52 | 0 | 0.0 | 0.0 | 0.00 | 0.58 | 0.43 | 82 | 1013.4 |
| 20260508005049 | 53 | 0 | 0.0 | 0.0 | 0.00 | 0.58 | 0.43 | 82 | 1013.3 |
| 20260508004602 | 53 | 0 | 0.0 | 0.0 | 0.00 | 0.58 | 0.43 | 82 | 1013.2 |
| 20260508004049 | 53 | 0 | 0.0 | 0.0 | 0.00 | 0.58 | 0.43 | 81 | 1013.4 |
| 20260508003549 | 53 | 0 | 0.0 | 0.0 | 0.00 | 0.58 | 0.43 | 81 | 1013.4 |
| 20260508003109 | 53 | 0 | 0.0 | 0.0 | 0.00 | 0.58 | 0.43 | 81 | 1013.3 |
| 20260508002549 | 53 | 0 | 0.0 | 0.0 | 0.00 | 0.58 | 0.43 | 80 | 1013.2 |
| 20260508002049 | 53 | 0 | 0.0 | 2.0 | 0.00 | 0.58 | 0.43 | 80 | 1013.1 |
| 20260508001550 | 54 | 0 | 0.0 | 2.0 | 0.00 | 0.58 | 0.43 | 80 | 1012.9 |
| 20260508001049 | 54 | 0 | 0.0 | 0.0 | 0.00 | 0.58 | 0.43 | 79 | 1012.9 |
| 20260508000550 | 54 | 0 | 0.0 | 0.0 | 0.00 | 0.58 | 0.43 | 79 | 1012.8 |
| 20260508000054 | 54 | 0 | 0.0 | 0.0 | 0.00 | 0.58 | 0.43 | 79 | 1012.8 |
| 20260507235549 | 54 | 0 | 0.0 | 0.0 | 0.00 | 0.71 | 0.43 | 79 | 1012.9 |
| 20260507235049 | 54 | 0 | 0.0 | 1.0 | 0.00 | 0.71 | 0.43 | 79 | 1012.9 |
| 20260507234553 | 54 | 0 | 0.0 | 5.0 | 0.00 | 0.71 | 0.43 | 78 | 1012.9 |
| 20260507234049 | 55 | 0 | 0.0 | 5.0 | 0.00 | 0.71 | 0.43 | 78 | 1012.9 |
| 20260507233549 | 55 | 0 | 0.0 | 0.0 | 0.00 | 0.71 | 0.43 | 79 | 1012.9 |
| 20260507233052 | 55 | 0 | 0.0 | 0.0 | 0.00 | 0.71 | 0.43 | 79 | 1013.0 |
| 20260507232549 | 55 | 0 | 0.0 | 3.0 | 0.00 | 0.71 | 0.43 | 79 | 1012.9 |
| 20260507232049 | 55 | 0 | 0.0 | 3.0 | 0.00 | 0.71 | 0.43 | 79 | 1012.7 |
| 20260507231605 | 55 | 0 | 0.0 | 0.0 | 0.00 | 0.71 | 0.43 | 80 | 1012.9 |
| 20260507231049 | 55 | 0 | 0.0 | 0.0 | 0.00 | 0.71 | 0.43 | 79 | 1012.8 |
| 20260507230546 | 55 | 0 | 0.0 | 3.0 | 0.00 | 0.71 | 0.43 | 79 | 1012.8 |
| 20260507230056 | 55 | 0 | 0.0 | 3.0 | 0.00 | 0.71 | 0.43 | 79 | 1013.0 |
| 20260507225549 | 55 | 0 | 0.0 | 7.0 | 0.00 | 0.73 | 0.43 | 80 | 1012.9 |